FWI64Y LFPO-MDPC

Flight info

Callsign FWI64Y
Flight time 8h 42m
Altitude 36000
Route LGL UN491 OTOFE DCT ALUTA DCT TAKAS/M085F360 DCT TAMEL DCT 4730N02000W 47N030W 45N040W 43N045W/M085F380 4045N04850W DCT NUMBR DCT SEAVR DCT DUPAN DCT KEEKA/N0493F380 M597 BETIR BETIR1W
Aircraft A35K/H-SDE2E3GHIJ3J4J5LM1ORWXY/LB1D1

Departure

Time 2026-04-30 11:33
Airport Paris-Orly Airport (LFPO)

Arrival

Time 2026-04-30 20:15
Airport Punta Cana International Airport (MDPC)
Time Latitude Longitude Altitude Speed Heading
2026-04-30 11:09 48.72825 2.37462 300 ft 0 kts
2026-04-30 11:18 48.72824 2.37462 297 ft 0 kts
2026-04-30 11:23 48.72814 2.37462 297 ft 4 kts
2026-04-30 11:24 48.72787 2.37463 297 ft 4 kts 354°
2026-04-30 11:24 48.72766 2.37457 297 ft 4 kts 30°
2026-04-30 11:24 48.72748 2.37430 301 ft 4 kts 65°
2026-04-30 11:25 48.72742 2.37407 301 ft 0 kts 74°
2026-04-30 11:26 48.72742 2.37406 297 ft 0 kts 74°
2026-04-30 11:27 48.72742 2.37407 301 ft 0 kts 74°
2026-04-30 11:27 48.72743 2.37415 297 ft 1 kts 74°
2026-04-30 11:27 48.72746 2.37431 297 ft 3 kts 74°
2026-04-30 11:27 48.72753 2.37470 297 ft 5 kts 74°
2026-04-30 11:28 48.72782 2.37626 302 ft 10 kts 74°
2026-04-30 11:28 48.72761 2.37706 302 ft 9 kts 152°
2026-04-30 11:28 48.72715 2.37690 297 ft 7 kts 223°
2026-04-30 11:29 48.72683 2.37614 297 ft 10 kts 243°
2026-04-30 11:29 48.72654 2.37505 301 ft 12 kts 249°
2026-04-30 11:29 48.72604 2.37212 302 ft 15 kts 255°
2026-04-30 11:30 48.72538 2.36856 298 ft 20 kts 254°
2026-04-30 11:30 48.72499 2.36645 302 ft 22 kts 255°
2026-04-30 11:30 48.72457 2.36415 301 ft 24 kts 255°
2026-04-30 11:31 48.72412 2.36166 301 ft 25 kts 254°
2026-04-30 11:31 48.72362 2.35905 300 ft 26 kts 254°
2026-04-30 11:31 48.72323 2.35689 299 ft 12 kts 254°
2026-04-30 11:31 48.72268 2.35608 302 ft 12 kts 191°
2026-04-30 11:32 48.72162 2.35624 299 ft 17 kts 167°
2026-04-30 11:32 48.72058 2.35703 301 ft 17 kts 130°
2026-04-30 11:32 48.71996 2.35838 302 ft 15 kts 120°
2026-04-30 11:33 48.72014 2.36256 303 ft 52 kts 74°
2026-04-30 11:33 48.72171 2.37111 298 ft 115 kts 74°
2026-04-30 11:33 48.72436 2.38541 305 ft 166 kts 75°
2026-04-30 11:33 48.72771 2.40248 923 ft 164 kts 75°
2026-04-30 11:34 48.73078 2.41832 1709 ft 159 kts 78°
2026-04-30 11:34 48.73365 2.43541 2153 ft 175 kts 77°
2026-04-30 11:34 48.73695 2.45322 2721 ft 178 kts 76°
2026-04-30 11:34 48.74051 2.47194 3128 ft 191 kts 79°
2026-04-30 11:35 48.74201 2.49193 3791 ft 191 kts 91°
2026-04-30 11:35 48.74193 2.51233 4240 ft 202 kts 92°
2026-04-30 11:35 48.74164 2.53408 4684 ft 212 kts 92°
2026-04-30 11:35 48.74143 2.55781 4954 ft 234 kts 92°
2026-04-30 11:36 48.73672 2.58167 5276 ft 249 kts 123°
2026-04-30 11:36 48.72301 2.59738 5981 ft 256 kts 161°
2026-04-30 11:36 48.70501 2.59699 6671 ft 270 kts 195°
2026-04-30 11:36 48.68905 2.58085 7313 ft 285 kts 225°
2026-04-30 11:37 48.67926 2.55468 8027 ft 295 kts 258°
2026-04-30 11:37 48.67626 2.52389 8767 ft 299 kts 261°
2026-04-30 11:37 48.67355 2.49262 9511 ft 301 kts 261°
2026-04-30 11:37 48.67065 2.46070 10272 ft 304 kts 261°
2026-04-30 11:38 48.66762 2.42822 10704 ft 321 kts 260°
2026-04-30 11:38 48.66281 2.39492 11006 ft 337 kts 249°
2026-04-30 11:38 48.65428 2.36093 11323 ft 354 kts 246°
2026-04-30 11:38 48.64461 2.32573 11655 ft 370 kts 245°
2026-04-30 11:39 48.63498 2.28905 12166 ft 380 kts 250°
2026-04-30 11:39 48.62996 2.24958 12763 ft 387 kts 267°
2026-04-30 11:39 48.63192 2.20873 13410 ft 392 kts 277°
2026-04-30 11:39 48.63610 2.16769 14024 ft 397 kts 278°
2026-04-30 11:40 48.64051 2.12623 14661 ft 402 kts 278°
2026-04-30 11:40 48.64489 2.08435 15296 ft 406 kts 278°
2026-04-30 11:40 48.64925 2.04199 15909 ft 410 kts 278°
2026-04-30 11:40 48.65358 1.99923 16522 ft 414 kts 278°
2026-04-30 11:41 48.65793 1.95594 17112 ft 418 kts 278°
2026-04-30 11:41 48.66230 1.91219 17673 ft 423 kts 277°
2026-04-30 11:41 48.66667 1.86808 18238 ft 427 kts 277°
2026-04-30 11:41 48.67108 1.82344 18811 ft 430 kts 277°
2026-04-30 11:42 48.67550 1.77845 19355 ft 435 kts 277°
2026-04-30 11:42 48.67995 1.73301 19939 ft 438 kts 277°
2026-04-30 11:42 48.68440 1.68723 20538 ft 441 kts 277°
2026-04-30 11:42 48.68887 1.64109 21118 ft 445 kts 277°
2026-04-30 11:43 48.69337 1.59452 21683 ft 449 kts 277°
2026-04-30 11:43 48.69789 1.54751 22209 ft 453 kts 277°
2026-04-30 11:43 48.70245 1.50016 22730 ft 457 kts 277°
2026-04-30 11:43 48.70700 1.45233 23268 ft 460 kts 277°
2026-04-30 11:44 48.71155 1.40419 23784 ft 464 kts 277°
2026-04-30 11:44 48.71612 1.35562 24275 ft 468 kts 277°
2026-04-30 11:44 48.72070 1.30671 24797 ft 471 kts 277°
2026-04-30 11:44 48.72529 1.25750 25299 ft 474 kts 277°
2026-04-30 11:45 48.72989 1.20801 25832 ft 476 kts 277°
2026-04-30 11:45 48.73450 1.15818 26313 ft 479 kts 277°
2026-04-30 11:45 48.73910 1.10819 26814 ft 480 kts 277°
2026-04-30 11:45 48.74370 1.05791 27278 ft 483 kts 277°
2026-04-30 11:46 48.74831 1.00737 27723 ft 486 kts 277°
2026-04-30 11:46 48.75292 0.95651 28197 ft 488 kts 277°
2026-04-30 11:46 48.75753 0.90547 28631 ft 490 kts 277°
2026-04-30 11:46 48.76214 0.85417 29095 ft 492 kts 277°
2026-04-30 11:47 48.76667 0.80345 29494 ft 494 kts 277°
2026-04-30 11:47 48.77127 0.75170 29885 ft 496 kts 277°
2026-04-30 11:47 48.77584 0.69981 30319 ft 497 kts 277°
2026-04-30 11:47 48.78042 0.64770 30665 ft 499 kts 277°
2026-04-30 11:48 48.78500 0.59542 31011 ft 501 kts 277°
2026-04-30 11:48 48.78958 0.54290 31317 ft 504 kts 277°
2026-04-30 11:48 48.79402 0.49012 31629 ft 505 kts 276°
2026-04-30 11:48 48.79768 0.43703 31975 ft 506 kts 275°
2026-04-30 11:49 48.80086 0.38398 32424 ft 504 kts 274°
2026-04-30 11:49 48.80386 0.33119 32819 ft 503 kts 274°
2026-04-30 11:49 48.80687 0.27839 33183 ft 502 kts 274°
2026-04-30 11:49 48.80994 0.22570 33517 ft 501 kts 274°
2026-04-30 11:50 48.81307 0.17309 33857 ft 501 kts 275°
2026-04-30 11:50 48.81623 0.12054 34225 ft 499 kts 275°
2026-04-30 11:50 48.81939 0.06825 34579 ft 497 kts 275°
2026-04-30 11:50 48.82252 0.01613 34878 ft 496 kts 275°
2026-04-30 11:51 48.82564 -0.03607 35131 ft 496 kts 274°
2026-04-30 11:51 48.82874 -0.08833 35289 ft 499 kts 274°
2026-04-30 11:51 48.83182 -0.14083 35475 ft 500 kts 273°
2026-04-30 11:51 48.83487 -0.19331 35751 ft 499 kts 273°
2026-04-30 11:52 48.83789 -0.24562 36032 ft 497 kts 273°
2026-04-30 11:52 48.84089 -0.29814 36100 ft 501 kts 273°
2026-04-30 11:52 48.84659 -0.40387 36101 ft 502 kts 273°
2026-04-30 11:53 48.85208 -0.50962 36101 ft 503 kts 273°
2026-04-30 11:53 48.85752 -0.61534 36100 ft 502 kts 272°
2026-04-30 11:54 48.86288 -0.72106 36101 ft 502 kts 272°
2026-04-30 11:54 48.86814 -0.82609 36102 ft 502 kts 272°
2026-04-30 11:55 48.87335 -0.93195 36092 ft 502 kts 272°
2026-04-30 11:55 48.87844 -1.03774 36090 ft 502 kts 272°
2026-04-30 11:56 48.88342 -1.14355 36085 ft 502 kts 272°
2026-04-30 11:56 48.88833 -1.24935 36082 ft 502 kts 272°
2026-04-30 11:57 48.89314 -1.35518 36080 ft 502 kts 272°
2026-04-30 11:57 48.89785 -1.46100 36073 ft 502 kts 272°
2026-04-30 11:58 48.90250 -1.56683 36061 ft 502 kts 272°
2026-04-30 11:58 48.90703 -1.67273 36058 ft 502 kts 272°
2026-04-30 11:59 48.91149 -1.77859 36060 ft 502 kts 272°
2026-04-30 11:59 48.91587 -1.88437 36052 ft 502 kts 272°
2026-04-30 12:00 48.92009 -1.99030 36053 ft 502 kts 271°
2026-04-30 12:00 48.92425 -2.09628 36059 ft 502 kts 271°
2026-04-30 12:01 48.92832 -2.20225 36048 ft 502 kts 271°
2026-04-30 12:01 48.93228 -2.30763 36050 ft 502 kts 271°
2026-04-30 12:02 48.93616 -2.41373 36055 ft 502 kts 271°
2026-04-30 12:02 48.93997 -2.51982 36049 ft 502 kts 271°
2026-04-30 12:03 48.94537 -2.67881 36061 ft 502 kts 271°
2026-04-30 12:04 48.94881 -2.78486 36056 ft 502 kts 271°
2026-04-30 12:04 48.95221 -2.89105 36056 ft 502 kts 271°
2026-04-30 12:05 48.95494 -2.97923 36047 ft 502 kts 270°
2026-04-30 12:05 48.95815 -3.08533 36045 ft 502 kts 270°
2026-04-30 12:06 48.96126 -3.19149 36036 ft 502 kts 270°
2026-04-30 12:06 48.96428 -3.29764 36035 ft 502 kts 270°
2026-04-30 12:07 48.96721 -3.40385 36026 ft 502 kts 270°
2026-04-30 12:07 48.97003 -3.51001 36027 ft 502 kts 270°
2026-04-30 12:08 48.97273 -3.61622 36018 ft 502 kts 270°
2026-04-30 12:08 48.97536 -3.72245 36018 ft 502 kts 270°
2026-04-30 12:09 48.97788 -3.82859 36017 ft 502 kts 270°
2026-04-30 12:09 48.98031 -3.93471 36011 ft 502 kts 270°
2026-04-30 12:10 48.98265 -4.04101 36010 ft 503 kts 269°
2026-04-30 12:10 48.98487 -4.14727 36015 ft 502 kts 269°
2026-04-30 12:11 48.98700 -4.25344 36025 ft 501 kts 269°
2026-04-30 12:11 48.98903 -4.35882 36026 ft 501 kts 269°
2026-04-30 12:12 48.99098 -4.46495 36031 ft 501 kts 269°
2026-04-30 12:12 48.99282 -4.57096 36038 ft 500 kts 269°
2026-04-30 12:13 48.99455 -4.67624 36036 ft 495 kts 269°
2026-04-30 12:13 48.99617 -4.78083 36035 ft 494 kts 269°
2026-04-30 12:14 48.99769 -4.88530 36036 ft 493 kts 269°
2026-04-30 12:14 48.99913 -4.98980 36036 ft 493 kts 269°
2026-04-30 12:15 49.00047 -5.09417 36027 ft 493 kts 269°
2026-04-30 12:15 49.00171 -5.19837 36026 ft 492 kts 268°
2026-04-30 12:16 49.00286 -5.30252 36027 ft 492 kts 268°
2026-04-30 12:16 49.00391 -5.40666 36027 ft 492 kts 268°
2026-04-30 12:17 49.00531 -5.56271 36026 ft 491 kts 268°
2026-04-30 12:17 49.00613 -5.66604 36026 ft 490 kts 268°
2026-04-30 12:18 49.00687 -5.76992 36018 ft 490 kts 268°
2026-04-30 12:18 49.00750 -5.87367 36016 ft 490 kts 268°
2026-04-30 12:19 49.00802 -5.97747 36018 ft 490 kts 268°
2026-04-30 12:19 49.00847 -6.08113 36017 ft 489 kts 267°
2026-04-30 12:20 49.00883 -6.18460 36018 ft 488 kts 267°
2026-04-30 12:20 49.00909 -6.28787 36017 ft 488 kts 267°
2026-04-30 12:21 49.00925 -6.39120 36026 ft 487 kts 267°
2026-04-30 12:21 49.00932 -6.49442 36027 ft 487 kts 267°
2026-04-30 12:22 49.00930 -6.59755 36026 ft 487 kts 266°
2026-04-30 12:22 49.00921 -6.70062 36026 ft 487 kts 266°
2026-04-30 12:23 49.00900 -6.80366 36027 ft 486 kts 266°
2026-04-30 12:23 49.00869 -6.90672 36027 ft 486 kts 266°
2026-04-30 12:24 49.00831 -7.00966 36027 ft 486 kts 266°
2026-04-30 12:24 49.00783 -7.11252 36026 ft 486 kts 266°
2026-04-30 12:25 49.00727 -7.21531 36026 ft 485 kts 266°
2026-04-30 12:25 49.00662 -7.31808 36026 ft 485 kts 265°
2026-04-30 12:26 49.00585 -7.42089 36026 ft 485 kts 265°
2026-04-30 12:26 49.00500 -7.52347 36027 ft 484 kts 265°
2026-04-30 12:27 49.00413 -7.62605 36027 ft 484 kts 265°
2026-04-30 12:27 49.00315 -7.72858 36027 ft 484 kts 265°
2026-04-30 12:28 49.00207 -7.83105 36026 ft 484 kts 265°
2026-04-30 12:28 49.00089 -7.93350 36026 ft 484 kts 265°
2026-04-30 12:29 48.99629 -8.03522 36028 ft 480 kts 259°
2026-04-30 12:29 48.98706 -8.13582 36035 ft 479 kts 257°
2026-04-30 12:30 48.97701 -8.23607 36035 ft 479 kts 257°
2026-04-30 12:30 48.96689 -8.33570 36035 ft 479 kts 257°
2026-04-30 12:31 48.95671 -8.43606 36035 ft 479 kts 257°
2026-04-30 12:31 48.94652 -8.53622 36036 ft 479 kts 256°
2026-04-30 12:32 48.93625 -8.63640 36036 ft 480 kts 256°
2026-04-30 12:32 48.92586 -8.73665 36034 ft 479 kts 256°
2026-04-30 12:33 48.91540 -8.83673 36037 ft 479 kts 256°
2026-04-30 12:33 48.90480 -8.93685 36036 ft 480 kts 256°
2026-04-30 12:34 48.89417 -9.03700 36036 ft 480 kts 256°
2026-04-30 12:34 48.88345 -9.13711 36035 ft 480 kts 256°
2026-04-30 12:35 48.87263 -9.23709 36052 ft 480 kts 256°
2026-04-30 12:35 48.86175 -9.33691 36338 ft 477 kts 255°
2026-04-30 12:36 48.85632 -9.38648 36662 ft 475 kts 255°
2026-04-30 12:36 48.85089 -9.43587 36917 ft 473 kts 256°
2026-04-30 12:36 48.84546 -9.48495 37259 ft 470 kts 256°
2026-04-30 12:36 48.84007 -9.53360 37617 ft 465 kts 256°
2026-04-30 12:37 48.83469 -9.58191 37850 ft 464 kts 256°
2026-04-30 12:37 48.82926 -9.63020 37995 ft 464 kts 256°
2026-04-30 12:37 48.81828 -9.72724 38047 ft 470 kts 256°
2026-04-30 12:38 48.80715 -9.82520 38045 ft 471 kts 256°
2026-04-30 12:38 48.79596 -9.92312 38045 ft 471 kts 256°
2026-04-30 12:39 48.78471 -10.02083 38044 ft 470 kts 256°
2026-04-30 12:39 48.77343 -10.11789 38045 ft 471 kts 256°
2026-04-30 12:40 48.76197 -10.21567 38047 ft 471 kts 255°
2026-04-30 12:40 48.75043 -10.31350 38073 ft 472 kts 255°
2026-04-30 12:41 48.73878 -10.41142 38072 ft 472 kts 255°
2026-04-30 12:41 48.72705 -10.50933 38073 ft 473 kts 255°
2026-04-30 12:42 48.71756 -10.60815 38073 ft 475 kts 259°
2026-04-30 12:42 48.70970 -10.70754 38073 ft 475 kts 259°
2026-04-30 12:43 48.70152 -10.80691 38073 ft 476 kts 258°
2026-04-30 12:43 48.69282 -10.90636 38073 ft 476 kts 258°
2026-04-30 12:44 48.68388 -11.00579 38073 ft 477 kts 258°
2026-04-30 12:44 48.67483 -11.10533 38072 ft 478 kts 258°
2026-04-30 12:45 48.66566 -11.20500 38072 ft 478 kts 258°
2026-04-30 12:45 48.65646 -11.30467 38073 ft 478 kts 258°
2026-04-30 12:46 48.64718 -11.40426 38072 ft 478 kts 258°
2026-04-30 12:46 48.63779 -11.50383 38073 ft 478 kts 258°
2026-04-30 12:47 48.62833 -11.60342 38073 ft 479 kts 258°
2026-04-30 12:47 48.61880 -11.70289 38072 ft 479 kts 258°
2026-04-30 12:48 48.60915 -11.80258 38073 ft 478 kts 258°
2026-04-30 12:48 48.59942 -11.90200 38073 ft 478 kts 258°
2026-04-30 12:49 48.58962 -12.00140 38073 ft 478 kts 258°
2026-04-30 12:49 48.57977 -12.10021 38073 ft 480 kts 258°
2026-04-30 12:50 48.56977 -12.19979 38075 ft 480 kts 258°
2026-04-30 12:50 48.55968 -12.29946 38073 ft 481 kts 258°
2026-04-30 12:51 48.54948 -12.39923 38073 ft 481 kts 258°
2026-04-30 12:51 48.54095 -12.48205 38073 ft 481 kts 258°
2026-04-30 12:52 48.53057 -12.58182 38071 ft 482 kts 258°
2026-04-30 12:52 48.52010 -12.68163 38063 ft 482 kts 258°
2026-04-30 12:53 48.50957 -12.78154 38064 ft 483 kts 258°
2026-04-30 12:53 48.49890 -12.88153 38064 ft 483 kts 258°
2026-04-30 12:54 48.48813 -12.98168 38064 ft 484 kts 258°
2026-04-30 12:54 48.47726 -13.08196 38063 ft 485 kts 258°
2026-04-30 12:55 48.46627 -13.18222 38063 ft 485 kts 258°
2026-04-30 12:55 48.45520 -13.28246 38064 ft 485 kts 259°
2026-04-30 12:56 48.44404 -13.38278 38064 ft 486 kts 259°
2026-04-30 12:56 48.43278 -13.48317 38063 ft 486 kts 259°
2026-04-30 12:57 48.42145 -13.58340 38058 ft 485 kts 259°
2026-04-30 12:57 48.41002 -13.68358 38054 ft 486 kts 259°
2026-04-30 12:58 48.39851 -13.78375 38054 ft 485 kts 259°
2026-04-30 12:58 48.38692 -13.88371 38054 ft 485 kts 259°
2026-04-30 12:59 48.37530 -13.98368 38054 ft 485 kts 259°
2026-04-30 12:59 48.36356 -14.08358 38055 ft 485 kts 259°
2026-04-30 13:00 48.35169 -14.18349 38054 ft 485 kts 259°
2026-04-30 13:00 48.33973 -14.28344 38054 ft 486 kts 259°
2026-04-30 13:01 48.32770 -14.38335 38054 ft 486 kts 259°
2026-04-30 13:01 48.31557 -14.48329 38055 ft 486 kts 259°
2026-04-30 13:02 48.30333 -14.58328 38054 ft 487 kts 259°
2026-04-30 13:02 48.29109 -14.68266 38037 ft 487 kts 259°
2026-04-30 13:03 48.27868 -14.78276 38036 ft 488 kts 259°
2026-04-30 13:03 48.26617 -14.88279 38036 ft 488 kts 259°
2026-04-30 13:04 48.25354 -14.98299 38036 ft 488 kts 259°
2026-04-30 13:04 48.24084 -15.08311 38036 ft 489 kts 259°
2026-04-30 13:05 48.22803 -15.18329 38030 ft 488 kts 259°
2026-04-30 13:06 48.20868 -15.33327 38025 ft 489 kts 259°
2026-04-30 13:06 48.19566 -15.43324 38025 ft 489 kts 259°
2026-04-30 13:07 48.18257 -15.53312 38025 ft 488 kts 259°
2026-04-30 13:07 48.16939 -15.63287 38028 ft 488 kts 259°
2026-04-30 13:08 48.15613 -15.73262 38028 ft 488 kts 259°
2026-04-30 13:08 48.14281 -15.83214 38028 ft 487 kts 259°
2026-04-30 13:09 48.12941 -15.93151 38027 ft 487 kts 259°
2026-04-30 13:09 48.11594 -16.03078 38025 ft 487 kts 259°
2026-04-30 13:10 48.10245 -16.12938 38030 ft 487 kts 259°
2026-04-30 13:10 48.08880 -16.22857 38027 ft 487 kts 259°
2026-04-30 13:11 48.07504 -16.32779 38026 ft 487 kts 259°
2026-04-30 13:11 48.06122 -16.42690 38027 ft 487 kts 259°
2026-04-30 13:12 48.04729 -16.52616 38025 ft 488 kts 258°
2026-04-30 13:12 48.03327 -16.62542 38036 ft 489 kts 258°
2026-04-30 13:13 48.01917 -16.72448 37934 ft 493 kts 259°
2026-04-30 13:13 48.01203 -16.77469 38003 ft 495 kts 259°
2026-04-30 13:14 47.99042 -16.92470 38025 ft 489 kts 259°
2026-04-30 13:14 47.96886 -17.07260 38024 ft 484 kts 258°
2026-04-30 13:15 47.94723 -17.21980 38025 ft 485 kts 258°
2026-04-30 13:16 47.93273 -17.31802 38029 ft 485 kts 259°
2026-04-30 13:16 47.91814 -17.41620 38024 ft 485 kts 258°
2026-04-30 13:17 47.89601 -17.56356 38025 ft 486 kts 258°
2026-04-30 13:18 47.87366 -17.71116 38030 ft 488 kts 258°
2026-04-30 13:18 47.85109 -17.85885 38025 ft 488 kts 258°
2026-04-30 13:19 47.83594 -17.95725 38026 ft 488 kts 258°
2026-04-30 13:19 47.82066 -18.05573 38025 ft 488 kts 258°
2026-04-30 13:20 47.80530 -18.15414 38024 ft 488 kts 258°
2026-04-30 13:20 47.78988 -18.25240 38019 ft 488 kts 258°
2026-04-30 13:21 47.77448 -18.34991 38018 ft 487 kts 258°
2026-04-30 13:22 47.75110 -18.49687 38018 ft 486 kts 258°
2026-04-30 13:22 47.72762 -18.64328 38017 ft 485 kts 258°
2026-04-30 13:23 47.70399 -18.78926 38017 ft 484 kts 258°
2026-04-30 13:24 47.67230 -18.98299 38017 ft 482 kts 258°
2026-04-30 13:25 47.64037 -19.17607 38017 ft 481 kts 258°
2026-04-30 13:26 47.60012 -19.41643 38010 ft 481 kts 259°
2026-04-30 13:28 47.55928 -19.65672 38009 ft 482 kts 258°
2026-04-30 13:28 47.53451 -19.80090 38010 ft 482 kts 258°
2026-04-30 13:29 47.50296 -19.99243 38009 ft 478 kts 265°
2026-04-30 13:31 47.49800 -20.23662 37999 ft 475 kts 272°
2026-04-30 13:32 47.49606 -20.48106 37999 ft 475 kts 272°
2026-04-30 13:33 47.49389 -20.67653 37998 ft 476 kts 271°
2026-04-30 13:34 47.49202 -20.82321 37989 ft 475 kts 271°
2026-04-30 13:35 47.48923 -21.01871 37989 ft 476 kts 271°
2026-04-30 13:36 47.48613 -21.21438 37990 ft 477 kts 271°
2026-04-30 13:36 47.48357 -21.36138 37990 ft 477 kts 271°
2026-04-30 13:37 47.48082 -21.50789 37990 ft 477 kts 271°
2026-04-30 13:38 47.47789 -21.65519 37990 ft 478 kts 270°
2026-04-30 13:39 47.47366 -21.85168 37981 ft 479 kts 270°
2026-04-30 13:40 47.47062 -21.98267 37981 ft 479 kts 270°
2026-04-30 13:40 47.46829 -22.08105 37980 ft 480 kts 270°
2026-04-30 13:41 47.46587 -22.17958 37980 ft 480 kts 270°
2026-04-30 13:41 47.46335 -22.27810 37981 ft 480 kts 270°
2026-04-30 13:42 47.46073 -22.37666 37981 ft 480 kts 270°
2026-04-30 13:42 47.45666 -22.52454 37981 ft 480 kts 270°
2026-04-30 13:43 47.45385 -22.62308 37980 ft 480 kts 270°
2026-04-30 13:43 47.45095 -22.72167 37967 ft 481 kts 269°
2026-04-30 13:44 47.44795 -22.82030 37976 ft 481 kts 269°
2026-04-30 13:44 47.44487 -22.91904 37967 ft 481 kts 269°
2026-04-30 13:45 47.44008 -23.06708 37958 ft 481 kts 269°
2026-04-30 13:46 47.43680 -23.16580 37970 ft 482 kts 269°
2026-04-30 13:46 47.43344 -23.26459 37958 ft 482 kts 269°
2026-04-30 13:47 47.42994 -23.36342 37968 ft 482 kts 269°
2026-04-30 13:47 47.42639 -23.46230 37958 ft 482 kts 269°
2026-04-30 13:48 47.42275 -23.56121 37967 ft 482 kts 269°
2026-04-30 13:48 47.41905 -23.65956 37958 ft 483 kts 269°
2026-04-30 13:49 47.41523 -23.75842 37970 ft 483 kts 268°
2026-04-30 13:49 47.41133 -23.85735 37962 ft 482 kts 268°
2026-04-30 13:50 47.40733 -23.95628 37967 ft 483 kts 268°
2026-04-30 13:50 47.40122 -24.10456 37966 ft 483 kts 268°
2026-04-30 13:51 47.39704 -24.20345 37956 ft 483 kts 268°
2026-04-30 13:51 47.39275 -24.30248 37947 ft 484 kts 268°
2026-04-30 13:52 47.38836 -24.40152 37939 ft 484 kts 268°
2026-04-30 13:52 47.38389 -24.50062 37939 ft 484 kts 268°
2026-04-30 13:53 47.37935 -24.59966 37941 ft 484 kts 268°
2026-04-30 13:53 47.37473 -24.69873 37938 ft 484 kts 268°
2026-04-30 13:54 47.37001 -24.79783 37938 ft 484 kts 268°
2026-04-30 13:54 47.36518 -24.89701 37931 ft 485 kts 267°
2026-04-30 13:55 47.36028 -24.99617 37931 ft 485 kts 267°
2026-04-30 13:55 47.35530 -25.09531 37934 ft 485 kts 267°
2026-04-30 13:56 47.35023 -25.19441 37932 ft 485 kts 267°
2026-04-30 13:56 47.34508 -25.29359 37908 ft 485 kts 267°
2026-04-30 13:57 47.33983 -25.39283 37906 ft 485 kts 267°
2026-04-30 13:57 47.33450 -25.49190 37906 ft 485 kts 266°
2026-04-30 13:58 47.32634 -25.64075 37905 ft 486 kts 266°
2026-04-30 13:59 47.32081 -25.73936 37894 ft 486 kts 266°
2026-04-30 13:59 47.31518 -25.83858 37863 ft 486 kts 266°
2026-04-30 14:00 47.30947 -25.93770 37852 ft 486 kts 266°
2026-04-30 14:00 47.30072 -26.08657 37851 ft 486 kts 266°
2026-04-30 14:01 47.29477 -26.18578 37848 ft 486 kts 266°
2026-04-30 14:01 47.28873 -26.28495 37849 ft 486 kts 266°
2026-04-30 14:02 47.28265 -26.38399 37853 ft 486 kts 266°
2026-04-30 14:02 47.27648 -26.48300 37848 ft 485 kts 266°
2026-04-30 14:03 47.27019 -26.58211 37849 ft 486 kts 265°
2026-04-30 14:03 47.26383 -26.68131 37849 ft 487 kts 265°
2026-04-30 14:04 47.25736 -26.78047 37852 ft 487 kts 265°
2026-04-30 14:04 47.25080 -26.87959 37849 ft 486 kts 265°
2026-04-30 14:05 47.24422 -26.97802 37851 ft 486 kts 265°
2026-04-30 14:05 47.23753 -27.07697 37852 ft 486 kts 265°
2026-04-30 14:06 47.22731 -27.22544 37857 ft 486 kts 265°
2026-04-30 14:07 47.21689 -27.37369 37862 ft 486 kts 265°
2026-04-30 14:08 47.20629 -27.52189 37861 ft 486 kts 265°
2026-04-30 14:08 47.19552 -27.67001 37862 ft 486 kts 264°
2026-04-30 14:09 47.18821 -27.76878 37859 ft 486 kts 264°
2026-04-30 14:10 47.17711 -27.91681 37862 ft 486 kts 264°
2026-04-30 14:10 47.16960 -28.01548 37859 ft 486 kts 264°
2026-04-30 14:11 47.16201 -28.11421 37859 ft 486 kts 264°
2026-04-30 14:11 47.15432 -28.21289 37862 ft 486 kts 264°
2026-04-30 14:12 47.14656 -28.31154 37860 ft 486 kts 264°
2026-04-30 14:12 47.13868 -28.41025 37862 ft 486 kts 264°
2026-04-30 14:13 47.13072 -28.50896 37859 ft 487 kts 264°
2026-04-30 14:13 47.12270 -28.60761 37859 ft 487 kts 264°
2026-04-30 14:14 47.11460 -28.70624 37858 ft 487 kts 264°
2026-04-30 14:14 47.10639 -28.80486 37862 ft 487 kts 263°
2026-04-30 14:15 47.09810 -28.90347 37860 ft 487 kts 263°
2026-04-30 14:15 47.08978 -29.00137 37860 ft 487 kts 263°
2026-04-30 14:16 47.08132 -29.09992 37859 ft 487 kts 263°
2026-04-30 14:16 47.07278 -29.19840 37859 ft 487 kts 263°
2026-04-30 14:17 47.06415 -29.29690 37859 ft 487 kts 263°
2026-04-30 14:17 47.05545 -29.39536 37860 ft 487 kts 263°
2026-04-30 14:18 47.04664 -29.49379 37863 ft 487 kts 263°
2026-04-30 14:18 47.03328 -29.64130 37860 ft 486 kts 263°
2026-04-30 14:19 47.01980 -29.78867 37859 ft 486 kts 263°
2026-04-30 14:20 47.01067 -29.88686 37861 ft 487 kts 263°
2026-04-30 14:20 46.99651 -30.03431 37858 ft 487 kts 260°
2026-04-30 14:21 46.98220 -30.13136 37856 ft 487 kts 257°
2026-04-30 14:22 46.95846 -30.27601 37861 ft 488 kts 257°
2026-04-30 14:22 46.93582 -30.42117 37859 ft 488 kts 258°
2026-04-30 14:23 46.90596 -30.61415 37862 ft 488 kts 257°
2026-04-30 14:24 46.88325 -30.75919 37861 ft 488 kts 257°
2026-04-30 14:25 46.85262 -30.95239 37856 ft 488 kts 257°
2026-04-30 14:26 46.82945 -31.09717 37856 ft 488 kts 257°
2026-04-30 14:27 46.80874 -31.22552 37875 ft 488 kts 257°
2026-04-30 14:27 46.79309 -31.32187 37882 ft 488 kts 257°
2026-04-30 14:28 46.76948 -31.46623 37875 ft 488 kts 257°
2026-04-30 14:28 46.75362 -31.56241 37876 ft 488 kts 256°
2026-04-30 14:29 46.72167 -31.75464 37877 ft 488 kts 256°
2026-04-30 14:31 46.68122 -31.99497 37877 ft 489 kts 256°
2026-04-30 14:31 46.65671 -32.13900 37878 ft 488 kts 256°
2026-04-30 14:32 46.63206 -32.28265 37879 ft 488 kts 256°
2026-04-30 14:33 46.61561 -32.37784 37880 ft 488 kts 256°
2026-04-30 14:33 46.59065 -32.52140 37905 ft 488 kts 256°
2026-04-30 14:34 46.57391 -32.61699 37906 ft 488 kts 255°
2026-04-30 14:34 46.55710 -32.71239 37906 ft 487 kts 255°
2026-04-30 14:35 46.53178 -32.85531 37907 ft 487 kts 255°
2026-04-30 14:36 46.51480 -32.95049 37907 ft 487 kts 255°
2026-04-30 14:36 46.49775 -33.04553 37906 ft 487 kts 255°
2026-04-30 14:37 46.48064 -33.14050 37906 ft 486 kts 255°
2026-04-30 14:37 46.46345 -33.23538 37906 ft 486 kts 255°
2026-04-30 14:38 46.44629 -33.32959 37907 ft 486 kts 255°
2026-04-30 14:38 46.42896 -33.42427 37907 ft 486 kts 254°
2026-04-30 14:39 46.41154 -33.51892 37906 ft 486 kts 254°
2026-04-30 14:39 46.39400 -33.61362 37906 ft 487 kts 254°
2026-04-30 14:40 46.36755 -33.75574 37905 ft 487 kts 254°
2026-04-30 14:40 46.34981 -33.85039 37907 ft 487 kts 254°
2026-04-30 14:41 46.33204 -33.94484 37907 ft 487 kts 254°
2026-04-30 14:41 46.31412 -34.03946 37907 ft 488 kts 253°
2026-04-30 14:42 46.29615 -34.13396 37921 ft 487 kts 253°
2026-04-30 14:42 46.27811 -34.22840 37982 ft 487 kts 253°
2026-04-30 14:43 46.25999 -34.32275 37980 ft 487 kts 253°
2026-04-30 14:43 46.24179 -34.41706 37989 ft 487 kts 253°
2026-04-30 14:44 46.22364 -34.51058 37990 ft 487 kts 253°
2026-04-30 14:44 46.20530 -34.60463 37989 ft 487 kts 253°
2026-04-30 14:45 46.18687 -34.69865 37989 ft 487 kts 253°
2026-04-30 14:45 46.16838 -34.79257 37990 ft 486 kts 253°
2026-04-30 14:46 46.14986 -34.88637 37990 ft 487 kts 252°
2026-04-30 14:46 46.13122 -34.98015 37990 ft 486 kts 252°
2026-04-30 14:47 46.11248 -35.07386 37990 ft 487 kts 252°
2026-04-30 14:47 46.09368 -35.16750 37989 ft 486 kts 252°
2026-04-30 14:48 46.07484 -35.26100 37995 ft 487 kts 252°
2026-04-30 14:48 46.05586 -35.35462 37999 ft 487 kts 252°
2026-04-30 14:49 46.03683 -35.44822 37998 ft 487 kts 252°
2026-04-30 14:49 46.01769 -35.54182 37999 ft 488 kts 251°
2026-04-30 14:50 45.98883 -35.68212 37998 ft 488 kts 251°
2026-04-30 14:51 45.95977 -35.82244 37999 ft 488 kts 251°
2026-04-30 14:52 45.93056 -35.96252 37999 ft 488 kts 251°
2026-04-30 14:52 45.90133 -36.10182 38008 ft 488 kts 251°
2026-04-30 14:53 45.87177 -36.24158 38008 ft 488 kts 251°
2026-04-30 14:54 45.83207 -36.42780 38008 ft 488 kts 251°
2026-04-30 14:55 45.80208 -36.56745 38008 ft 489 kts 250°
2026-04-30 14:56 45.76179 -36.75353 38017 ft 489 kts 250°
2026-04-30 14:57 45.73137 -36.89295 38017 ft 489 kts 250°
2026-04-30 14:58 45.69051 -37.07882 38017 ft 490 kts 250°
2026-04-30 14:58 45.65962 -37.21818 38017 ft 490 kts 250°
2026-04-30 15:00 45.60785 -37.44973 38017 ft 491 kts 250°
2026-04-30 15:01 45.56598 -37.63527 38017 ft 491 kts 250°
2026-04-30 15:01 45.53440 -37.77414 38029 ft 490 kts 250°
2026-04-30 15:02 45.51325 -37.86661 38026 ft 491 kts 249°
2026-04-30 15:03 45.46001 -38.09769 38023 ft 491 kts 249°
2026-04-30 15:04 45.40619 -38.32881 38036 ft 492 kts 249°
2026-04-30 15:06 45.35192 -38.55947 38036 ft 492 kts 249°
2026-04-30 15:07 45.30816 -38.74379 38043 ft 492 kts 249°
2026-04-30 15:08 45.26422 -38.92728 38045 ft 492 kts 249°
2026-04-30 15:09 45.20868 -39.15690 38045 ft 492 kts 249°
2026-04-30 15:10 45.16389 -39.34059 38055 ft 493 kts 249°
2026-04-30 15:11 45.09611 -39.61547 38055 ft 493 kts 249°
2026-04-30 15:13 45.03948 -39.84291 38063 ft 488 kts 248°
2026-04-30 15:14 44.94571 -40.14918 38073 ft 485 kts 240°
2026-04-30 15:17 44.81024 -40.51454 38080 ft 485 kts 240°
2026-04-30 15:19 44.68435 -40.85061 38080 ft 486 kts 240°
2026-04-30 17:39 33.78230 -59.73585 37990 ft 438 kts 233°
2026-04-30 17:42 33.58542 -59.99817 37990 ft 438 kts 233°
2026-04-30 17:43 33.48320 -60.13357 37977 ft 438 kts 233°
2026-04-30 17:44 33.36057 -60.29534 37977 ft 438 kts 232°
2026-04-30 17:47 33.17590 -60.53765 37958 ft 438 kts 232°
2026-04-30 17:48 33.03218 -60.72511 37967 ft 438 kts 232°
2026-04-30 17:50 32.86712 -60.93914 37964 ft 439 kts 232°
2026-04-30 17:52 32.74287 -61.09945 37953 ft 440 kts 232°
2026-04-30 17:53 32.62853 -61.22023 37951 ft 452 kts 216°
2026-04-30 17:54 32.51807 -61.29269 37948 ft 454 kts 214°
2026-04-30 17:56 32.29617 -61.43699 37950 ft 455 kts 214°
2026-04-30 17:58 32.12930 -61.54531 37949 ft 457 kts 214°
2026-04-30 18:00 31.90614 -61.68942 37957 ft 458 kts 214°
2026-04-30 18:01 31.76648 -61.77921 37939 ft 457 kts 214°
2026-04-30 18:02 31.59911 -61.88638 37941 ft 458 kts 214°
2026-04-30 18:04 31.43136 -61.99338 37950 ft 458 kts 214°
2026-04-30 18:06 31.20604 -62.13641 37937 ft 462 kts 213°
2026-04-30 18:08 31.00819 -62.26129 37949 ft 463 kts 213°
2026-04-30 18:10 30.78186 -62.40350 37944 ft 463 kts 213°
2026-04-30 18:11 30.58321 -62.52770 37938 ft 463 kts 213°
2026-04-30 18:13 30.44084 -62.61635 37946 ft 468 kts 213°
2026-04-30 18:14 30.29732 -62.70539 37942 ft 468 kts 212°
2026-04-30 18:15 30.12493 -62.81196 37941 ft 468 kts 212°
2026-04-30 18:16 30.00996 -62.88281 37945 ft 469 kts 212°
2026-04-30 18:17 29.95242 -62.91819 37950 ft 469 kts 212°
2026-04-30 18:18 29.86645 -62.97099 37945 ft 469 kts 212°
2026-04-30 18:18 29.80883 -63.00628 37947 ft 469 kts 212°
2026-04-30 18:19 29.75121 -63.04154 37942 ft 469 kts 212°
2026-04-30 18:19 29.69255 -63.07472 37940 ft 473 kts 204°
2026-04-30 18:20 29.63025 -63.09980 37943 ft 475 kts 202°
2026-04-30 18:20 29.56736 -63.12328 37944 ft 475 kts 201°
2026-04-30 18:21 29.50438 -63.14656 37945 ft 476 kts 201°
2026-04-30 18:21 29.44140 -63.16998 37957 ft 476 kts 201°
2026-04-30 18:22 29.37846 -63.19346 37957 ft 476 kts 202°
2026-04-30 18:22 29.28401 -63.22864 37950 ft 476 kts 201°
2026-04-30 18:23 29.22106 -63.25207 37954 ft 476 kts 201°
2026-04-30 18:23 29.15812 -63.27543 37953 ft 476 kts 201°
2026-04-30 18:24 29.06363 -63.31047 37958 ft 476 kts 201°
2026-04-30 18:25 29.00059 -63.33383 37953 ft 476 kts 201°
2026-04-30 18:25 28.90601 -63.36879 37952 ft 476 kts 201°
2026-04-30 18:26 28.81138 -63.40370 37950 ft 477 kts 201°
2026-04-30 18:27 28.71672 -63.43855 37955 ft 477 kts 201°
2026-04-30 18:28 28.63267 -63.46946 37954 ft 477 kts 201°
2026-04-30 18:28 28.52760 -63.50804 37953 ft 477 kts 201°
2026-04-30 18:29 28.41132 -63.55060 37953 ft 478 kts 201°
2026-04-30 18:30 28.28500 -63.59672 37946 ft 478 kts 201°
2026-04-30 18:31 28.18987 -63.63139 37955 ft 479 kts 201°
2026-04-30 18:32 28.09462 -63.66604 37948 ft 479 kts 201°
2026-04-30 18:33 27.99942 -63.70059 37953 ft 479 kts 200°
2026-04-30 18:33 27.90417 -63.73514 37950 ft 479 kts 200°
2026-04-30 18:34 27.80888 -63.76960 37947 ft 479 kts 200°
2026-04-30 18:35 27.74537 -63.79252 37952 ft 479 kts 200°
2026-04-30 18:35 27.68188 -63.81543 37952 ft 479 kts 200°
2026-04-30 18:36 27.58662 -63.84974 37959 ft 479 kts 201°
2026-04-30 18:37 27.49145 -63.88394 37948 ft 478 kts 201°
2026-04-30 18:37 27.42803 -63.90672 37949 ft 478 kts 201°
2026-04-30 18:38 27.36467 -63.92944 37953 ft 477 kts 200°
2026-04-30 18:38 27.30140 -63.95209 37955 ft 477 kts 201°
2026-04-30 18:39 27.23817 -63.97470 37946 ft 476 kts 201°
2026-04-30 18:39 27.17499 -63.99727 37962 ft 476 kts 201°
2026-04-30 18:40 27.11185 -64.01983 37950 ft 477 kts 201°
2026-04-30 18:40 27.04849 -64.04239 37950 ft 478 kts 201°
2026-04-30 18:41 26.98515 -64.06494 37955 ft 477 kts 201°
2026-04-30 18:41 26.92188 -64.08743 37952 ft 477 kts 201°
2026-04-30 18:42 26.85907 -64.10973 37964 ft 477 kts 201°
2026-04-30 18:42 26.76434 -64.14330 37955 ft 475 kts 201°
2026-04-30 18:45 26.41785 -64.26574 37970 ft 474 kts 201°
2026-04-30 18:46 26.35499 -64.28784 37961 ft 473 kts 201°
2026-04-30 18:46 26.29216 -64.30993 37970 ft 474 kts 201°
2026-04-30 18:47 26.22928 -64.33199 37963 ft 473 kts 201°
2026-04-30 18:47 26.16645 -64.35403 37955 ft 473 kts 201°
2026-04-30 18:48 26.10364 -64.37603 37967 ft 473 kts 201°
2026-04-30 18:48 26.04081 -64.39801 37958 ft 473 kts 201°
2026-04-30 18:49 25.97799 -64.41996 37959 ft 473 kts 201°
2026-04-30 18:49 25.91527 -64.44186 37959 ft 472 kts 201°
2026-04-30 18:50 25.85268 -64.46368 37961 ft 471 kts 201°
2026-04-30 18:50 25.79013 -64.48547 37961 ft 471 kts 201°
2026-04-30 18:51 25.72755 -64.50724 37965 ft 471 kts 201°
2026-04-30 18:51 25.66495 -64.52899 37965 ft 471 kts 201°
2026-04-30 18:52 25.60239 -64.55071 37953 ft 471 kts 201°
2026-04-30 18:52 25.53986 -64.57239 37956 ft 471 kts 201°
2026-04-30 18:53 25.47553 -64.58802 37955 ft 475 kts 194°
2026-04-30 18:53 25.41058 -64.59929 37959 ft 475 kts 193°
2026-04-30 18:54 25.34511 -64.60992 37956 ft 476 kts 193°
2026-04-30 18:54 25.27961 -64.62060 37953 ft 476 kts 193°
2026-04-30 18:55 25.21417 -64.63138 37963 ft 475 kts 193°
2026-04-30 18:55 25.11617 -64.64760 37963 ft 475 kts 194°
2026-04-30 18:56 25.01818 -64.66377 37961 ft 474 kts 194°
2026-04-30 18:57 24.92044 -64.67991 37967 ft 474 kts 194°
2026-04-30 18:57 24.85522 -64.69065 37959 ft 473 kts 194°
2026-04-30 18:58 24.75758 -64.70671 37952 ft 472 kts 194°
2026-04-30 18:59 24.66006 -64.72271 37947 ft 472 kts 194°
2026-04-30 19:00 24.53016 -64.74397 37955 ft 472 kts 195°
2026-04-30 19:01 24.40043 -64.76520 37950 ft 471 kts 195°
2026-04-30 19:02 24.30313 -64.78108 37964 ft 471 kts 195°
2026-04-30 19:03 24.17395 -64.80213 37959 ft 471 kts 195°
2026-04-30 19:04 24.04435 -64.82317 37960 ft 471 kts 195°
2026-04-30 19:05 23.91451 -64.84424 37953 ft 468 kts 196°
2026-04-30 19:06 23.78606 -64.86506 37961 ft 468 kts 196°
2026-04-30 19:06 23.68948 -64.88069 37961 ft 468 kts 196°
2026-04-30 19:07 23.59285 -64.89627 37963 ft 468 kts 196°
2026-04-30 19:08 23.46402 -64.91702 37962 ft 468 kts 195°
2026-04-30 19:09 23.36741 -64.93256 37969 ft 468 kts 196°
2026-04-30 19:09 23.30300 -64.94291 37955 ft 467 kts 196°
2026-04-30 19:10 23.17448 -64.96351 37960 ft 467 kts 196°
2026-04-30 19:11 23.07808 -64.97895 37959 ft 467 kts 196°
2026-04-30 19:12 23.01379 -64.98924 37966 ft 466 kts 196°
2026-04-30 19:12 22.95004 -64.99943 37963 ft 466 kts 196°
2026-04-30 19:13 22.82186 -65.01988 37970 ft 466 kts 196°
2026-04-30 19:14 22.75774 -65.03011 37973 ft 465 kts 196°
2026-04-30 19:14 22.69368 -65.04032 37962 ft 465 kts 196°
2026-04-30 19:15 22.62968 -65.05049 37969 ft 464 kts 196°
2026-04-30 19:15 22.54459 -65.06399 37960 ft 464 kts 196°
2026-04-30 19:16 22.48066 -65.07415 37958 ft 464 kts 196°
2026-04-30 19:17 22.38475 -65.08934 37964 ft 464 kts 196°
2026-04-30 19:17 22.28906 -65.10449 37955 ft 463 kts 196°
2026-04-30 19:18 22.19338 -65.11962 37964 ft 463 kts 196°
2026-04-30 19:19 22.13190 -65.13637 37955 ft 449 kts 209°
2026-04-30 19:19 22.05788 -65.19267 37956 ft 429 kts 233°
2026-04-30 19:20 22.02116 -65.24326 37967 ft 428 kts 237°
2026-04-30 19:21 21.96849 -65.32103 37967 ft 427 kts 237°
2026-04-30 19:22 21.89786 -65.42390 37948 ft 428 kts 237°
2026-04-30 19:23 21.79129 -65.57787 37956 ft 429 kts 237°
2026-04-30 19:24 21.73774 -65.65510 37950 ft 430 kts 237°
2026-04-30 19:25 21.64829 -65.78386 37952 ft 430 kts 237°
2026-04-30 19:26 21.57660 -65.88683 37961 ft 430 kts 236°
2026-04-30 19:27 21.52280 -65.96399 37960 ft 430 kts 237°
2026-04-30 19:28 21.46906 -66.04099 37956 ft 430 kts 236°
2026-04-30 19:29 21.39192 -66.13967 37956 ft 432 kts 232°
2026-04-30 19:30 21.31230 -66.23557 37957 ft 431 kts 233°
2026-04-30 19:31 21.23352 -66.33229 37967 ft 430 kts 233°
2026-04-30 19:31 21.17447 -66.40470 37960 ft 430 kts 233°
2026-04-30 19:32 21.13512 -66.45292 37958 ft 430 kts 233°
2026-04-30 19:32 21.09577 -66.50105 37968 ft 429 kts 233°
2026-04-30 19:33 21.05645 -66.54909 37958 ft 429 kts 233°
2026-04-30 19:33 21.01714 -66.59709 37962 ft 429 kts 233°
2026-04-30 19:34 20.97786 -66.64500 37955 ft 428 kts 233°
2026-04-30 19:35 20.91932 -66.71639 37971 ft 427 kts 233°
2026-04-30 19:35 20.88012 -66.76412 37961 ft 427 kts 233°
2026-04-30 19:36 20.84087 -66.81184 37963 ft 427 kts 233°
2026-04-30 19:36 20.78201 -66.88336 37954 ft 427 kts 233°
2026-04-30 19:37 20.74273 -66.93105 37965 ft 427 kts 233°
2026-04-30 19:37 20.70343 -66.97872 37967 ft 427 kts 232°
2026-04-30 19:38 20.66410 -67.02637 37967 ft 428 kts 232°
2026-04-30 19:38 20.62479 -67.07395 37956 ft 427 kts 232°
2026-04-30 19:39 20.58549 -67.12150 37964 ft 427 kts 232°
2026-04-30 19:39 20.54619 -67.16900 37977 ft 427 kts 232°
2026-04-30 19:40 20.50686 -67.21653 37978 ft 427 kts 232°
2026-04-30 19:40 20.46754 -67.26396 37977 ft 427 kts 232°
2026-04-30 19:41 20.42827 -67.31130 37961 ft 426 kts 232°
2026-04-30 19:41 20.38899 -67.35861 37972 ft 426 kts 232°
2026-04-30 19:42 20.35000 -67.40553 37977 ft 426 kts 232°
2026-04-30 19:42 20.31073 -67.45274 37903 ft 425 kts 232°
2026-04-30 19:43 20.29093 -67.47652 37658 ft 422 kts 232°
2026-04-30 19:43 20.27174 -67.49958 37416 ft 421 kts 232°
2026-04-30 19:43 20.25228 -67.52296 37158 ft 422 kts 232°
2026-04-30 19:44 20.21328 -67.56977 36682 ft 423 kts 232°
2026-04-30 19:44 20.19378 -67.59316 36421 ft 423 kts 232°
2026-04-30 19:44 20.17421 -67.61662 36170 ft 425 kts 232°
2026-04-30 19:44 20.15453 -67.64023 35923 ft 429 kts 232°
2026-04-30 19:45 20.13461 -67.66409 35674 ft 432 kts 232°
2026-04-30 19:45 20.11463 -67.68800 35424 ft 432 kts 232°
2026-04-30 19:45 20.09474 -67.71182 35175 ft 430 kts 232°
2026-04-30 19:45 20.07493 -67.73550 34907 ft 426 kts 232°
2026-04-30 19:46 20.05538 -67.75886 34488 ft 420 kts 232°
2026-04-30 19:46 20.03607 -67.78193 33989 ft 415 kts 232°
2026-04-30 19:46 20.01698 -67.80475 33486 ft 411 kts 232°
2026-04-30 19:46 19.99802 -67.82740 32971 ft 408 kts 232°
2026-04-30 19:47 19.97926 -67.84981 32491 ft 404 kts 232°
2026-04-30 19:47 19.96692 -67.86454 32164 ft 402 kts 232°
2026-04-30 19:47 19.94222 -67.89401 31514 ft 397 kts 232°
2026-04-30 19:47 19.92395 -67.91581 31033 ft 393 kts 232°
2026-04-30 19:48 19.90583 -67.93742 30555 ft 390 kts 232°
2026-04-30 19:48 19.88787 -67.95882 30080 ft 387 kts 232°
2026-04-30 19:48 19.87004 -67.98006 29614 ft 383 kts 232°
2026-04-30 19:48 19.85240 -68.00108 29148 ft 380 kts 232°
2026-04-30 19:49 19.83485 -68.02198 28683 ft 377 kts 232°
2026-04-30 19:49 19.80019 -68.06323 27763 ft 371 kts 231°
2026-04-30 19:49 19.78306 -68.08362 27305 ft 368 kts 231°
2026-04-30 19:50 19.76607 -68.10381 26851 ft 366 kts 231°
2026-04-30 19:50 19.74920 -68.12386 26389 ft 363 kts 231°
2026-04-30 19:50 19.73267 -68.14350 25939 ft 360 kts 231°
2026-04-30 19:50 19.71587 -68.16347 25481 ft 357 kts 230°
2026-04-30 19:51 19.69939 -68.18302 25028 ft 354 kts 230°
2026-04-30 19:51 19.68324 -68.20219 24569 ft 351 kts 230°
2026-04-30 19:51 19.66705 -68.22141 24130 ft 348 kts 230°
2026-04-30 19:51 19.65100 -68.24045 23684 ft 345 kts 230°
2026-04-30 19:52 19.63507 -68.25934 23237 ft 343 kts 230°
2026-04-30 19:52 19.61925 -68.27809 22790 ft 340 kts 230°
2026-04-30 19:52 19.60352 -68.29674 22354 ft 337 kts 230°
2026-04-30 19:52 19.58793 -68.31520 21906 ft 335 kts 230°
2026-04-30 19:53 19.57244 -68.33354 21467 ft 332 kts 230°
2026-04-30 19:53 19.55706 -68.35174 21033 ft 331 kts 230°
2026-04-30 19:53 19.54173 -68.36990 20597 ft 330 kts 230°
2026-04-30 19:53 19.52644 -68.38798 20159 ft 328 kts 230°
2026-04-30 19:54 19.51123 -68.40597 19710 ft 327 kts 230°
2026-04-30 19:54 19.49608 -68.42387 19281 ft 326 kts 230°
2026-04-30 19:54 19.48096 -68.44175 18853 ft 325 kts 230°
2026-04-30 19:54 19.46588 -68.45956 18415 ft 324 kts 230°
2026-04-30 19:55 19.45087 -68.47729 17983 ft 322 kts 230°
2026-04-30 19:55 19.43594 -68.49494 17561 ft 321 kts 230°
2026-04-30 19:55 19.42110 -68.51246 17262 ft 315 kts 230°
2026-04-30 19:55 19.40672 -68.52942 17124 ft 303 kts 230°
2026-04-30 19:56 19.39289 -68.54573 16989 ft 292 kts 230°
2026-04-30 19:56 19.37952 -68.56151 16852 ft 283 kts 230°
2026-04-30 19:56 19.36646 -68.57693 16573 ft 280 kts 230°
2026-04-30 19:56 19.35351 -68.59222 16237 ft 279 kts 230°
2026-04-30 19:57 19.34055 -68.60751 15896 ft 279 kts 230°
2026-04-30 19:57 19.32723 -68.62320 15764 ft 295 kts 230°
2026-04-30 19:57 19.31331 -68.63951 15656 ft 300 kts 229°
2026-04-30 19:57 19.29932 -68.65585 15228 ft 299 kts 229°
2026-04-30 19:58 19.28538 -68.67215 14877 ft 300 kts 229°
2026-04-30 19:58 19.27137 -68.68855 14600 ft 300 kts 229°
2026-04-30 19:58 19.25737 -68.70493 14333 ft 300 kts 229°
2026-04-30 19:58 19.24338 -68.72129 14064 ft 299 kts 229°
2026-04-30 19:59 19.22944 -68.73761 13806 ft 299 kts 229°
2026-04-30 19:59 19.21566 -68.75372 13557 ft 299 kts 229°
2026-04-30 19:59 19.18815 -68.78588 13139 ft 286 kts 229°
2026-04-30 20:00 19.17497 -68.80128 12894 ft 279 kts 229°
2026-04-30 20:00 19.16206 -68.81636 12642 ft 275 kts 229°
2026-04-30 20:00 19.14873 -68.83077 12396 ft 275 kts 220°
2026-04-30 20:00 19.13202 -68.84045 12120 ft 277 kts 197°
2026-04-30 20:01 19.09381 -68.84584 11581 ft 278 kts 186°
2026-04-30 20:01 19.07460 -68.84763 11331 ft 277 kts 186°
2026-04-30 20:01 19.05544 -68.84949 11096 ft 276 kts 186°
2026-04-30 20:02 19.01715 -68.85336 10960 ft 277 kts 186°
2026-04-30 20:02 18.99803 -68.85534 10827 ft 274 kts 186°
2026-04-30 20:03 18.95985 -68.85931 9926 ft 276 kts 186°
2026-04-30 20:03 18.94087 -68.86129 9654 ft 273 kts 186°
2026-04-30 20:03 18.92199 -68.86326 9414 ft 272 kts 186°
2026-04-30 20:03 18.90324 -68.86522 9185 ft 270 kts 185°
2026-04-30 20:04 18.88459 -68.86717 8951 ft 269 kts 185°
2026-04-30 20:04 18.86600 -68.86911 8719 ft 268 kts 185°
2026-04-30 20:04 18.84777 -68.87082 8533 ft 258 kts 181°
2026-04-30 20:05 18.82036 -68.86173 8129 ft 250 kts 137°
2026-04-30 20:05 18.80871 -68.84816 7885 ft 250 kts 127°
2026-04-30 20:05 18.78802 -68.82004 7455 ft 236 kts 127°
2026-04-30 20:06 18.77804 -68.80656 7257 ft 232 kts 127°
2026-04-30 20:06 18.76812 -68.79324 7049 ft 230 kts 127°
2026-04-30 20:06 18.75820 -68.77998 6849 ft 230 kts 127°
2026-04-30 20:06 18.74831 -68.76681 6660 ft 229 kts 127°
2026-04-30 20:07 18.73856 -68.75384 6441 ft 223 kts 127°
2026-04-30 20:07 18.72895 -68.74107 6257 ft 221 kts 127°
2026-04-30 20:07 18.70991 -68.71576 5883 ft 220 kts 127°
2026-04-30 20:08 18.70049 -68.70322 5681 ft 213 kts 126°
2026-04-30 20:08 18.69128 -68.69082 5506 ft 217 kts 127°
2026-04-30 20:08 18.68183 -68.67841 5314 ft 217 kts 128°
2026-04-30 20:08 18.67232 -68.66598 5127 ft 217 kts 127°
2026-04-30 20:09 18.66286 -68.65354 4929 ft 216 kts 127°
2026-04-30 20:09 18.65361 -68.64112 4739 ft 214 kts 127°
2026-04-30 20:09 18.63542 -68.61641 4358 ft 215 kts 127°
2026-04-30 20:10 18.61700 -68.59201 4039 ft 211 kts 127°
2026-04-30 20:10 18.60738 -68.58030 3847 ft 215 kts 137°
2026-04-30 20:10 18.59455 -68.57262 3654 ft 214 kts 158°
2026-04-30 20:11 18.56513 -68.56378 3408 ft 222 kts 162°
2026-04-30 20:11 18.55025 -68.55941 3141 ft 221 kts 161°
2026-04-30 20:11 18.53696 -68.55190 2902 ft 217 kts 134°
2026-04-30 20:12 18.53096 -68.52278 2472 ft 214 kts 73°
2026-04-30 20:12 18.53638 -68.50814 2276 ft 214 kts 71°
2026-04-30 20:12 18.54030 -68.49338 2101 ft 203 kts 78°
2026-04-30 20:13 18.54380 -68.47936 1903 ft 193 kts 74°
2026-04-30 20:13 18.54757 -68.46605 1679 ft 186 kts 74°
2026-04-30 20:13 18.55104 -68.45328 1413 ft 175 kts 74°
2026-04-30 20:13 18.55430 -68.44140 1184 ft 162 kts 74°
2026-04-30 20:14 18.55726 -68.43046 1003 ft 149 kts 75°
2026-04-30 20:14 18.56006 -68.42022 822 ft 143 kts 74°
2026-04-30 20:14 18.56289 -68.41014 650 ft 143 kts 74°
2026-04-30 20:14 18.56559 -68.40005 471 ft 143 kts 75°
2026-04-30 20:15 18.56834 -68.39009 262 ft 144 kts 73°
2026-04-30 20:15 18.57118 -68.38001 66 ft 141 kts 74°
2026-04-30 20:15 18.57363 -68.37089 51 ft 108 kts 74°
2026-04-30 20:15 18.57491 -68.36619 54 ft 38 kts 74°
2026-04-30 20:16 18.57564 -68.36351 53 ft 38 kts 74°
2026-04-30 20:16 18.57601 -68.36080 56 ft 37 kts 97°
2026-04-30 20:16 18.57584 -68.35991 57 ft 31 kts 105°
2026-04-30 20:16 18.57566 -68.35937 56 ft 27 kts 115°
2026-04-30 20:17 18.57448 -68.35841 54 ft 21 kts 162°
2026-04-30 20:17 18.57301 -68.35830 50 ft 22 kts 176°
2026-04-30 20:17 18.57141 -68.35819 54 ft 24 kts 176°
2026-04-30 20:17 18.56977 -68.35810 56 ft 22 kts 176°
2026-04-30 20:18 18.56812 -68.35799 54 ft 25 kts 174°
2026-04-30 20:18 18.56656 -68.35783 48 ft 20 kts 174°
2026-04-30 20:18 18.56559 -68.35779 53 ft 13 kts 192°
2026-04-30 20:18 18.56514 -68.35848 49 ft 11 kts 262°
2026-04-30 20:19 18.56502 -68.35931 50 ft 11 kts 264°
2026-04-30 20:19 18.56493 -68.36021 50 ft 14 kts 264°
2026-04-30 20:19 18.56483 -68.36129 56 ft 16 kts 264°
2026-04-30 20:19 18.56474 -68.36253 53 ft 18 kts 266°
2026-04-30 20:20 18.56464 -68.36358 56 ft 7 kts 264°
2026-04-30 20:20 18.56464 -68.36364 56 ft 0 kts 264°
2026-04-30 20:20 18.56463 -68.36370 56 ft 2 kts 264°
2026-04-30 20:20 18.56451 -68.36387 49 ft 4 kts 219°
2026-04-30 20:21 18.56415 -68.36395 56 ft 6 kts 179°
2026-04-30 20:21 18.56393 -68.36393 56 ft 2 kts 176°
2026-04-30 20:21 18.56386 -68.36393 56 ft 0 kts 176°